Volver al catálogo

STARLINK-35957

ActivoComunicacionesVLEO
NORAD 66823·PAYLOAD·🇺🇸 United States

Lanzado Dec 2, 2025 desde Vandenberg Space Force Base

Loading…

Próximos Pases (próximas 24 horas)

TLE

ActualizadoSource: CelesTrak SupGP

Época: Sep 14, 2026, 23:18 UTC

1 66823C 25280C   26257.97131944 -.00034952  00000+0 -29281-2 0  2577
2 66823  70.0012 217.0945 0003566 261.3728  12.6600 14.98360601    18

Sigue STARLINK-35957 en tiempo real con AllMySat

Download on the App Store